GMT8890 MMGL-MMAA

Flight info

Callsign GMT8890
Flight time 0h 56m
Altitude 37000
Route EMIRI1B EMIRI DCT ZIH J1 AVURO AVURO1B
Aircraft B737/M-SDE2E3FGHIRWXY/LB1

Departure

Time 2026-05-06 02:31
Airport Guadalajara International Airport (MMGL)

Arrival

Time 2026-05-06 03:28
Airport General Juan N. Álvarez International Airport (MMAA)
Time Latitude Longitude Altitude Speed Heading
2026-05-06 01:47 20.52434 -103.30072 5028 ft 0 kts 18°
2026-05-06 02:21 20.52420 -103.30077 5028 ft 4 kts 22°
2026-05-06 02:21 20.52396 -103.30090 5026 ft 4 kts 39°
2026-05-06 02:21 20.52381 -103.30110 5028 ft 4 kts 87°
2026-05-06 02:21 20.52381 -103.30120 5028 ft 0 kts 109°
2026-05-06 02:26 20.52373 -103.30095 5026 ft 7 kts 109°
2026-05-06 02:26 20.52350 -103.30035 5028 ft 11 kts 127°
2026-05-06 02:27 20.52274 -103.30040 5028 ft 13 kts 199°
2026-05-06 02:27 20.52194 -103.30061 5028 ft 10 kts 172°
2026-05-06 02:27 20.52162 -103.30016 5027 ft 8 kts 114°
2026-05-06 02:27 20.52130 -103.29941 5028 ft 14 kts 114°
2026-05-06 02:28 20.52083 -103.29828 5028 ft 19 kts 114°
2026-05-06 02:28 20.52023 -103.29687 5028 ft 13 kts 114°
2026-05-06 02:28 20.51998 -103.29630 5026 ft 8 kts 114°
2026-05-06 02:28 20.51974 -103.29573 5029 ft 6 kts 115°
2026-05-06 02:29 20.51936 -103.29535 5029 ft 8 kts 168°
2026-05-06 02:29 20.51910 -103.29541 5029 ft 0 kts 205°
2026-05-06 02:29 20.51905 -103.29543 5029 ft 1 kts 201°
2026-05-06 02:29 20.51904 -103.29543 5029 ft 0 kts 201°
2026-05-06 02:30 20.51900 -103.29545 5029 ft 1 kts 201°
2026-05-06 02:30 20.51874 -103.29556 5029 ft 10 kts 202°
2026-05-06 02:30 20.51822 -103.29601 5029 ft 14 kts 263°
2026-05-06 02:30 20.51975 -103.29988 5027 ft 102 kts 294°
2026-05-06 02:31 20.52408 -103.31012 5082 ft 179 kts 293°
2026-05-06 02:31 20.52938 -103.32297 5980 ft 195 kts 293°
2026-05-06 02:31 20.53461 -103.33597 7087 ft 188 kts 293°
2026-05-06 02:31 20.53957 -103.34832 8135 ft 188 kts 292°
2026-05-06 02:32 20.54475 -103.36119 9193 ft 188 kts 292°
2026-05-06 02:32 20.54992 -103.37406 10158 ft 194 kts 291°
2026-05-06 02:32 20.55558 -103.38821 10495 ft 221 kts 291°
2026-05-06 02:32 20.56057 -103.40495 10697 ft 248 kts 270°
2026-05-06 02:33 20.55582 -103.42291 11112 ft 261 kts 235°
2026-05-06 02:33 20.54762 -103.43270 11408 ft 276 kts 218°
2026-05-06 02:33 20.49936 -103.44252 11840 ft 348 kts 166°
2026-05-06 02:34 20.47690 -103.43095 12018 ft 376 kts 143°
2026-05-06 02:34 20.45811 -103.41031 12241 ft 398 kts 130°
2026-05-06 02:34 20.44148 -103.38640 12756 ft 406 kts 127°
2026-05-06 02:34 20.42517 -103.36168 13436 ft 407 kts 127°
2026-05-06 02:35 20.41031 -103.33968 14060 ft 407 kts 127°
2026-05-06 02:35 20.39320 -103.31542 14518 ft 412 kts 128°
2026-05-06 02:35 20.38725 -103.30723 14646 ft 414 kts 129°
2026-05-06 02:35 20.37013 -103.28422 15055 ft 418 kts 130°
2026-05-06 02:36 20.35266 -103.26133 15575 ft 418 kts 130°
2026-05-06 02:36 20.33359 -103.23671 15994 ft 422 kts 131°
2026-05-06 02:36 20.31473 -103.21257 16369 ft 426 kts 131°
2026-05-06 02:36 20.29570 -103.18829 16819 ft 428 kts 131°
2026-05-06 02:37 20.27863 -103.16655 17225 ft 429 kts 131°
2026-05-06 02:37 20.25936 -103.14200 17659 ft 431 kts 131°
2026-05-06 02:37 20.24014 -103.11750 18049 ft 432 kts 131°
2026-05-06 02:37 20.22083 -103.09288 18407 ft 434 kts 132°
2026-05-06 02:38 20.20124 -103.06790 18749 ft 435 kts 132°
2026-05-06 02:38 20.18202 -103.04339 19082 ft 436 kts 132°
2026-05-06 02:38 20.16233 -103.01830 19377 ft 438 kts 132°
2026-05-06 02:38 20.14269 -102.99328 19674 ft 440 kts 131°
2026-05-06 02:39 20.12309 -102.96832 19954 ft 440 kts 132°
2026-05-06 02:39 20.10348 -102.94335 20205 ft 442 kts 132°
2026-05-06 02:39 20.08375 -102.91826 20481 ft 443 kts 132°
2026-05-06 02:39 20.06390 -102.89303 20754 ft 444 kts 132°
2026-05-06 02:40 20.04399 -102.86772 21011 ft 446 kts 132°
2026-05-06 02:40 20.02409 -102.84244 21255 ft 447 kts 132°
2026-05-06 02:40 20.00407 -102.81701 21489 ft 449 kts 132°
2026-05-06 02:40 19.98395 -102.79147 21724 ft 450 kts 132°
2026-05-06 02:41 19.96383 -102.76594 21937 ft 452 kts 132°
2026-05-06 02:41 19.94364 -102.74032 22136 ft 453 kts 132°
2026-05-06 02:41 19.92250 -102.71551 22317 ft 453 kts 138°
2026-05-06 02:41 19.89796 -102.69457 22527 ft 451 kts 146°
2026-05-06 02:42 19.87225 -102.67530 22735 ft 452 kts 146°
2026-05-06 02:42 19.84649 -102.65615 22918 ft 453 kts 146°
2026-05-06 02:42 19.82069 -102.63692 23095 ft 454 kts 146°
2026-05-06 02:42 19.79488 -102.61757 23262 ft 455 kts 146°
2026-05-06 02:43 19.76902 -102.59807 23413 ft 456 kts 146°
2026-05-06 02:43 19.74314 -102.57847 23551 ft 457 kts 146°
2026-05-06 02:43 19.71733 -102.55887 23670 ft 458 kts 146°
2026-05-06 02:43 19.69146 -102.53921 23768 ft 459 kts 146°
2026-05-06 02:44 19.66549 -102.51947 23876 ft 460 kts 146°
2026-05-06 02:44 19.63946 -102.49969 23974 ft 461 kts 146°
2026-05-06 02:44 19.61333 -102.47984 24072 ft 462 kts 146°
2026-05-06 02:44 19.58719 -102.46000 24168 ft 463 kts 146°
2026-05-06 02:45 19.56094 -102.44009 24263 ft 464 kts 146°
2026-05-06 02:45 19.53461 -102.42012 24358 ft 465 kts 146°
2026-05-06 02:45 19.50827 -102.40016 24445 ft 466 kts 146°
2026-05-06 02:45 19.48194 -102.38022 24531 ft 467 kts 146°
2026-05-06 02:46 19.46410 -102.36671 24588 ft 467 kts 146°
2026-05-06 02:46 19.43758 -102.34663 24659 ft 468 kts 146°
2026-05-06 02:46 19.41071 -102.32629 24729 ft 469 kts 146°
2026-05-06 02:46 19.38405 -102.30613 24831 ft 470 kts 146°
2026-05-06 02:47 19.35757 -102.28611 24920 ft 470 kts 146°
2026-05-06 02:47 19.33087 -102.26593 24995 ft 471 kts 146°
2026-05-06 02:47 19.30409 -102.24570 25062 ft 472 kts 146°
2026-05-06 02:47 19.27737 -102.22552 25126 ft 473 kts 146°
2026-05-06 02:48 19.25030 -102.20509 25207 ft 473 kts 146°
2026-05-06 02:48 19.22374 -102.18505 25281 ft 474 kts 146°
2026-05-06 02:48 19.19655 -102.16454 25330 ft 475 kts 146°
2026-05-06 02:48 19.16970 -102.14429 25392 ft 475 kts 146°
2026-05-06 02:49 19.14278 -102.12401 25446 ft 475 kts 146°
2026-05-06 02:49 19.11581 -102.10369 25502 ft 476 kts 146°
2026-05-06 02:49 19.08883 -102.08337 25519 ft 476 kts 146°
2026-05-06 02:49 19.06182 -102.06304 25551 ft 477 kts 146°
2026-05-06 02:50 19.03471 -102.04264 25590 ft 477 kts 146°
2026-05-06 02:50 19.00767 -102.02231 25614 ft 477 kts 146°
2026-05-06 02:50 18.98074 -102.00206 25655 ft 477 kts 146°
2026-05-06 02:50 18.95362 -101.98169 25673 ft 478 kts 146°
2026-05-06 02:51 18.92653 -101.96134 25735 ft 477 kts 146°
2026-05-06 02:51 18.89975 -101.94122 26309 ft 465 kts 146°
2026-05-06 02:51 18.87378 -101.92171 27192 ft 450 kts 146°
2026-05-06 02:51 18.84876 -101.90291 28189 ft 435 kts 146°
2026-05-06 02:52 18.82440 -101.88462 29190 ft 423 kts 147°
2026-05-06 02:52 18.80094 -101.86702 30060 ft 416 kts 147°
2026-05-06 02:52 18.77718 -101.84922 30632 ft 415 kts 147°
2026-05-06 02:52 18.75337 -101.83141 30994 ft 421 kts 147°
2026-05-06 02:53 18.72969 -101.81370 31307 ft 426 kts 147°
2026-05-06 02:53 18.70530 -101.79547 31614 ft 431 kts 147°
2026-05-06 02:53 18.68040 -101.77686 31974 ft 435 kts 147°
2026-05-06 02:53 18.65571 -101.75838 32337 ft 438 kts 147°
2026-05-06 02:54 18.63077 -101.73974 32687 ft 442 kts 147°
2026-05-06 02:54 18.60553 -101.72087 33033 ft 445 kts 147°
2026-05-06 02:54 18.58017 -101.70191 33333 ft 448 kts 147°
2026-05-06 02:54 18.55455 -101.68277 33643 ft 452 kts 147°
2026-05-06 02:55 18.52887 -101.66360 33928 ft 455 kts 147°
2026-05-06 02:55 18.50291 -101.64422 34208 ft 457 kts 147°
2026-05-06 02:55 18.47684 -101.62475 34491 ft 459 kts 147°
2026-05-06 02:55 18.45107 -101.60553 34762 ft 461 kts 147°
2026-05-06 02:56 18.42482 -101.58595 35025 ft 463 kts 147°
2026-05-06 02:56 18.39850 -101.56634 35265 ft 465 kts 147°
2026-05-06 02:56 18.37171 -101.54638 35501 ft 467 kts 147°
2026-05-06 02:56 18.34520 -101.52663 35726 ft 469 kts 147°
2026-05-06 02:57 18.31851 -101.50675 35951 ft 470 kts 147°
2026-05-06 02:57 18.29184 -101.48689 36156 ft 471 kts 147°
2026-05-06 02:57 18.26499 -101.46690 36320 ft 473 kts 147°
2026-05-06 02:57 18.23809 -101.44690 36490 ft 474 kts 146°
2026-05-06 02:58 18.21109 -101.42684 36678 ft 474 kts 147°
2026-05-06 02:58 18.18422 -101.40688 36917 ft 472 kts 146°
2026-05-06 02:58 18.15724 -101.38684 36909 ft 474 kts 146°
2026-05-06 02:59 18.10344 -101.34690 36934 ft 473 kts 146°
2026-05-06 02:59 18.04967 -101.30702 36935 ft 473 kts 146°
2026-05-06 03:00 17.99595 -101.26721 36945 ft 473 kts 146°
2026-05-06 03:00 17.94220 -101.22740 36944 ft 472 kts 146°
2026-05-06 03:01 17.88853 -101.18767 36949 ft 472 kts 146°
2026-05-06 03:01 17.83485 -101.14798 36964 ft 472 kts 146°
2026-05-06 03:02 17.78110 -101.10826 36956 ft 472 kts 146°
2026-05-06 03:02 17.72743 -101.06863 36962 ft 472 kts 146°
2026-05-06 03:03 17.67377 -101.02904 36956 ft 471 kts 146°
2026-05-06 03:03 17.62013 -100.98948 36957 ft 471 kts 146°
2026-05-06 03:04 17.56650 -100.94997 36956 ft 470 kts 146°
2026-05-06 03:04 17.51301 -100.91059 36957 ft 470 kts 146°
2026-05-06 03:05 17.45951 -100.87123 36956 ft 470 kts 146°
2026-05-06 03:05 17.40594 -100.83185 36947 ft 469 kts 146°
2026-05-06 03:06 17.35283 -100.79282 36929 ft 463 kts 146°
2026-05-06 03:06 17.32644 -100.77344 36674 ft 465 kts 146°
2026-05-06 03:06 17.30002 -100.75405 36415 ft 461 kts 146°
2026-05-06 03:06 17.27386 -100.73484 36137 ft 459 kts 146°
2026-05-06 03:07 17.24777 -100.71570 35242 ft 457 kts 146°
2026-05-06 03:07 17.22406 -100.69372 34400 ft 453 kts 131°
2026-05-06 03:07 17.20697 -100.66598 33217 ft 457 kts 119°
2026-05-06 03:07 17.19262 -100.63629 32087 ft 456 kts 118°
2026-05-06 03:08 17.17868 -100.60675 31101 ft 451 kts 118°
2026-05-06 03:08 17.16480 -100.57747 30061 ft 448 kts 118°
2026-05-06 03:08 17.15084 -100.54840 28817 ft 448 kts 118°
2026-05-06 03:08 17.13657 -100.51906 27629 ft 461 kts 118°
2026-05-06 03:09 17.12172 -100.48879 26439 ft 472 kts 118°
2026-05-06 03:09 17.10667 -100.45822 25310 ft 471 kts 118°
2026-05-06 03:09 17.09190 -100.42825 24293 ft 455 kts 117°
2026-05-06 03:09 17.07771 -100.39944 23330 ft 437 kts 117°
2026-05-06 03:10 17.06405 -100.37173 22303 ft 423 kts 117°
2026-05-06 03:10 17.05075 -100.34478 21402 ft 411 kts 117°
2026-05-06 03:10 17.03779 -100.31848 20520 ft 403 kts 117°
2026-05-06 03:10 17.02494 -100.29243 19677 ft 408 kts 117°
2026-05-06 03:11 17.01164 -100.26549 18785 ft 423 kts 117°
2026-05-06 03:11 16.99825 -100.23838 17791 ft 414 kts 117°
2026-05-06 03:11 16.98661 -100.21162 17119 ft 392 kts 109°
2026-05-06 03:11 16.97816 -100.18526 16442 ft 377 kts 107°
2026-05-06 03:12 16.97052 -100.15968 15744 ft 362 kts 107°
2026-05-06 03:12 16.96326 -100.13510 15196 ft 345 kts 107°
2026-05-06 03:12 16.95627 -100.11170 14666 ft 331 kts 107°
2026-05-06 03:12 16.95164 -100.09642 14333 ft 322 kts 107°
2026-05-06 03:13 16.94637 -100.07916 13946 ft 313 kts 107°
2026-05-06 03:13 16.93979 -100.05779 13420 ft 304 kts 107°
2026-05-06 03:13 16.93338 -100.03705 12909 ft 298 kts 107°
2026-05-06 03:13 16.92700 -100.01647 12409 ft 298 kts 107°
2026-05-06 03:14 16.92055 -99.99569 11941 ft 304 kts 107°
2026-05-06 03:14 16.91390 -99.97429 11422 ft 316 kts 107°
2026-05-06 03:14 16.90714 -99.95260 11187 ft 310 kts 107°
2026-05-06 03:14 16.90082 -99.93231 10941 ft 301 kts 107°
2026-05-06 03:15 16.89553 -99.91538 10715 ft 290 kts 107°
2026-05-06 03:15 16.88954 -99.89617 10628 ft 265 kts 107°
2026-05-06 03:15 16.88408 -99.87870 10463 ft 243 kts 107°
2026-05-06 03:15 16.87904 -99.86254 10326 ft 224 kts 107°
2026-05-06 03:16 16.87441 -99.84773 10213 ft 205 kts 107°
2026-05-06 03:16 16.87009 -99.83388 9909 ft 200 kts 107°
2026-05-06 03:16 16.86575 -99.81997 9433 ft 203 kts 107°
2026-05-06 03:16 16.86138 -99.80599 9024 ft 202 kts 107°
2026-05-06 03:17 16.85703 -99.79205 8615 ft 201 kts 108°
2026-05-06 03:17 16.85277 -99.77843 8308 ft 194 kts 108°
2026-05-06 03:17 16.84857 -99.76503 7883 ft 195 kts 108°
2026-05-06 03:17 16.84437 -99.75160 7503 ft 194 kts 108°
2026-05-06 03:18 16.84161 -99.74276 7286 ft 193 kts 108°
2026-05-06 03:18 16.83603 -99.72495 6933 ft 196 kts 108°
2026-05-06 03:18 16.83176 -99.71132 6641 ft 197 kts 108°
2026-05-06 03:18 16.82895 -99.70234 6448 ft 197 kts 109°
2026-05-06 03:19 16.82469 -99.68875 6168 ft 195 kts 109°
2026-05-06 03:19 16.82053 -99.67545 5890 ft 193 kts 109°
2026-05-06 03:19 16.81638 -99.66220 5627 ft 191 kts 109°
2026-05-06 03:19 16.81222 -99.64893 5358 ft 188 kts 108°
2026-05-06 03:20 16.80408 -99.62297 4855 ft 192 kts 108°
2026-05-06 03:20 16.79990 -99.60965 4598 ft 194 kts 108°
2026-05-06 03:20 16.79571 -99.59633 4327 ft 192 kts 109°
2026-05-06 03:21 16.79163 -99.58333 4178 ft 184 kts 108°
2026-05-06 03:21 16.78679 -99.57129 4033 ft 178 kts 131°
2026-05-06 03:21 16.77645 -99.56495 3866 ft 171 kts 176°
2026-05-06 03:21 16.76497 -99.56673 3717 ft 167 kts 201°
2026-05-06 03:22 16.75398 -99.57040 3544 ft 169 kts 200°
2026-05-06 03:22 16.74266 -99.57415 3329 ft 170 kts 201°
2026-05-06 03:22 16.73146 -99.57789 3119 ft 167 kts 200°
2026-05-06 03:22 16.72055 -99.58162 2891 ft 164 kts 205°
2026-05-06 03:23 16.71296 -99.58958 2595 ft 149 kts 262°
2026-05-06 03:23 16.71382 -99.60018 2521 ft 156 kts 276°
2026-05-06 03:23 16.71499 -99.61147 2352 ft 156 kts 279°
2026-05-06 03:23 16.71704 -99.62243 2140 ft 148 kts 281°
2026-05-06 03:24 16.71968 -99.63294 1944 ft 152 kts 285°
2026-05-06 03:24 16.72279 -99.64351 1737 ft 150 kts 287°
2026-05-06 03:24 16.72588 -99.65352 1548 ft 140 kts 286°
2026-05-06 03:24 16.72882 -99.66300 1366 ft 137 kts 287°
2026-05-06 03:25 16.73173 -99.67247 1206 ft 135 kts 286°
2026-05-06 03:25 16.73453 -99.68180 1000 ft 134 kts 285°
2026-05-06 03:25 16.73760 -99.69097 785 ft 136 kts 288°
2026-05-06 03:25 16.74036 -99.70044 704 ft 138 kts 285°
2026-05-06 03:26 16.74339 -99.71013 585 ft 140 kts 289°
2026-05-06 03:26 16.74635 -99.71967 384 ft 137 kts 288°
2026-05-06 03:26 16.74932 -99.72879 151 ft 126 kts 287°
2026-05-06 03:26 16.75190 -99.73722 37 ft 113 kts 285°
2026-05-06 03:27 16.75398 -99.74398 17 ft 74 kts 289°
2026-05-06 03:27 16.75527 -99.74797 17 ft 62 kts 288°
2026-05-06 03:27 16.75677 -99.75278 19 ft 65 kts 288°
2026-05-06 03:27 16.75806 -99.75683 22 ft 53 kts 288°
2026-05-06 03:28 16.75910 -99.76017 19 ft 33 kts 288°
2026-05-06 03:28 16.75963 -99.76173 19 ft 13 kts 302°
2026-05-06 03:28 16.76018 -99.76235 17 ft 10 kts 316°
2026-05-06 03:28 16.76073 -99.76270 17 ft 8 kts
2026-05-06 03:29 16.76122 -99.76255 17 ft 7 kts 20°
2026-05-06 03:29 16.76155 -99.76230 16 ft 5 kts 52°
2026-05-06 03:29 16.76165 -99.76201 18 ft 3 kts 82°
2026-05-06 03:29 16.76164 -99.76192 16 ft 1 kts 106°
2026-05-06 03:30 16.76159 -99.76176 18 ft 1 kts 107°
2026-05-06 03:30 16.76150 -99.76147 16 ft 7 kts 108°
2026-05-06 03:30 16.76138 -99.76106 16 ft 7 kts 108°
2026-05-06 03:30 16.76128 -99.76076 17 ft 2 kts 108°
2026-05-06 03:31 16.76116 -99.76039 17 ft 7 kts 108°
2026-05-06 03:31 16.76109 -99.76016 16 ft 7 kts 108°
2026-05-06 03:31 16.76093 -99.75962 16 ft 10 kts 108°
2026-05-06 03:31 16.76067 -99.75880 17 ft 12 kts 108°
2026-05-06 03:32 16.76058 -99.75850 18 ft 0 kts 106°
2026-05-06 03:32 16.76055 -99.75839 17 ft 5 kts 105°
2026-05-06 03:32 16.76060 -99.75792 17 ft 9 kts 57°
2026-05-06 03:32 16.76090 -99.75736 16 ft 9 kts 95°
2026-05-06 03:33 16.76080 -99.75699 16 ft 0 kts 108°
2026-05-06 03:33 16.76079 -99.75698 16 ft 1 kts 108°
2026-05-06 03:33 16.76076 -99.75687 16 ft 3 kts 108°
2026-05-06 03:33 16.76071 -99.75672 18 ft 3 kts 109°
2026-05-06 03:34 16.76074 -99.75654 16 ft 3 kts 52°
2026-05-06 03:34 16.76103 -99.75641 16 ft 6 kts 19°
2026-05-06 03:34 16.76138 -99.75628 17 ft 2 kts 18°
2026-05-06 03:34 16.76156 -99.75622 16 ft 2 kts 16°
2026-05-06 03:35 16.76165 -99.75619 16 ft 1 kts 18°
2026-05-06 03:35 16.76167 -99.75619 16 ft 0 kts 18°